{"data":{"norad_id":57975,"intl_designator":"2023-151M","name":"STARLINK-30503","alt_names":[],"object_type":"PAYLOAD","status":"ACTIVE","operator":null,"country":"US","launch_date":"2023-09-30","launch_site_code":"AFETR","launch_vehicle":null,"mission":null,"orbit_class":"UNKNOWN","rcs_meters":null,"size_class":null,"mass_kg":null,"dimensions":null,"purposes":["comms"],"wikipedia_slug":null,"has_3d_model":false,"image_url":null,"decayed_at":null,"tle_current":{"epoch":"2026-09-20T05:21:20.109024Z","epoch_age_seconds":161594,"freshness":"FRESH","line1":"1 57975U 23151M   26263.22314941  .00003389  00000+0  13261-3 0  9998","line2":"2 57975  43.0010 317.7023 0001217 232.0347 128.0394 15.27576839165516","mean_motion":15.27576839,"eccentricity":0.0001217,"inclination_deg":43.001,"raan_deg":317.7023,"arg_perigee_deg":232.0347,"mean_anomaly_deg":128.0394,"bstar":0.00013261,"rev_number":16551,"period_min":94.266943778924,"perigee_km":482.22355372734,"apogee_km":483.89356872694,"semimajor_km":6861.1955612271,"source":"CELESTRAK","updated_at":"2026-09-21T09:00:33.750844Z"}}}